When you browse on this site, cookies collect data to enhance your experience and personalize the content and advertising you see.
Visit our Privacy Policy to learn more. By continuing to use the site, you agree to this use of cookies and data.
  • In France
  • List of Countries
  • For 7 days
  • Water Temperature
  • Weather Map
  • Weather Widgets
  • user-avatar
    Login

    Hourly Weather Gweru

    Today, 2 June, Tuesday

    Time Temperature Precipitation Wind Pressure Humidity
    00:00 +10°C° 0 mm 3 mps 647 mmHg 78%
    01:00 +10°C° 0 mm 2 mps 647 mmHg 85%
    02:00 +9°C° 0 mm 2 mps 647 mmHg 92%
    03:00 +9°C° 0 mm 2 mps 647 mmHg 93%
    04:00 +8°C° 0 mm 2 mps 646 mmHg 94%
    05:00 +9°C° 0 mm 1 mps 646 mmHg 95%
    06:00 +9°C° 0 mm 2 mps 647 mmHg 88%
    07:00 +12°C° 0 mm 2 mps 648 mmHg 81%
    08:00 +13°C° 0 mm 2 mps 649 mmHg 74%
    09:00 +16°C° 0 mm 2 mps 649 mmHg 61%
    10:00 +19°C° 0 mm 2 mps 650 mmHg 48%
    11:00 +21°C° 0 mm 3 mps 650 mmHg 35%
    12:00 +22°C° 0 mm 3 mps 649 mmHg 32%
    13:00 +24°C° 0 mm 3 mps 649 mmHg 29%
    14:00 +25°C° 0 mm 3 mps 649 mmHg 26%
    15:00 +24°C° 0 mm 3 mps 648 mmHg 28%
    16:00 +22°C° 0 mm 3 mps 648 mmHg 31%
    17:00 +21°C° 0 mm 4 mps 647 mmHg 33%
    18:00 +19°C° 0 mm 4 mps 647 mmHg 40%
    19:00 +17°C° 0 mm 4 mps 647 mmHg 47%
    20:00 +13°C° 0 mm 4 mps 647 mmHg 54%
    21:00 +12°C° 0 mm 4 mps 647 mmHg 60%
    22:00 +12°C° 0 mm 3 mps 646 mmHg 66%
    23:00 +11°C° 0 mm 3 mps 646 mmHg 72%

    Tomorrow, 3 June, Wednesday

    Time Temperature Precipitation Wind Pressure Humidity
    00:00 +10°C° 0 mm 3 mps 646 mmHg 75%
    01:00 +10°C° 0 mm 3 mps 646 mmHg 78%
    02:00 +9°C° 0 mm 3 mps 646 mmHg 81%
    03:00 +8°C° 0 mm 2 mps 645 mmHg 83%
    04:00 +8°C° 0 mm 2 mps 645 mmHg 84%
    05:00 +7°C° 0 mm 2 mps 645 mmHg 86%
    06:00 +9°C° 0 mm 2 mps 646 mmHg 78%
    07:00 +12°C° 0 mm 2 mps 647 mmHg 71%
    08:00 +13°C° 0 mm 2 mps 647 mmHg 63%
    09:00 +16°C° 0 mm 2 mps 648 mmHg 52%
    10:00 +19°C° 0 mm 2 mps 648 mmHg 41%
    11:00 +22°C° 0 mm 3 mps 649 mmHg 30%
    12:00 +24°C° 0 mm 3 mps 648 mmHg 26%
    13:00 +25°C° 0 mm 3 mps 648 mmHg 22%
    14:00 +26°C° 0 mm 3 mps 647 mmHg 18%
    15:00 +25°C° 0 mm 3 mps 647 mmHg 20%
    16:00 +22°C° 0 mm 3 mps 646 mmHg 22%
    17:00 +21°C° 0 mm 3 mps 646 mmHg 24%
    18:00 +19°C° 0 mm 4 mps 646 mmHg 31%
    19:00 +17°C° 0 mm 4 mps 646 mmHg 38%
    20:00 +14°C° 0 mm 4 mps 646 mmHg 46%
    21:00 +13°C° 0 mm 4 mps 645 mmHg 51%
    22:00 +11°C° 0 mm 3 mps 645 mmHg 56%
    23:00 +10°C° 0 mm 2 mps 645 mmHg 61%

    Day after tomorrow, 4 June, Thursday

    Time Temperature Precipitation Wind Pressure Humidity
    00:00 +9°C° 0 mm 2 mps 645 mmHg 65%
    01:00 +9°C° 0 mm 2 mps 645 mmHg 69%
    02:00 +8°C° 0 mm 2 mps 644 mmHg 73%
    03:00 +8°C° 0 mm 2 mps 645 mmHg 75%
    04:00 +8°C° 0 mm 2 mps 645 mmHg 77%
    05:00 +8°C° 0 mm 2 mps 645 mmHg 79%
    06:00 +11°C° 0 mm 1 mps 645 mmHg 72%
    07:00 +12°C° 0 mm 1 mps 646 mmHg 65%
    08:00 +14°C° 0 mm 1 mps 647 mmHg 58%
    09:00 +18°C° 0 mm 1 mps 648 mmHg 48%
    10:00 +21°C° 0 mm 1 mps 648 mmHg 39%
    11:00 +24°C° 0 mm 2 mps 649 mmHg 29%
    12:00 +24°C° 0 mm 2 mps 649 mmHg 26%
    13:00 +25°C° 0 mm 3 mps 648 mmHg 24%
    14:00 +25°C° 0 mm 3 mps 647 mmHg 21%
    15:00 +24°C° 0 mm 3 mps 647 mmHg 24%
    16:00 +22°C° 0 mm 4 mps 647 mmHg 27%
    17:00 +20°C° 0 mm 4 mps 646 mmHg 30%
    18:00 +18°C° 0 mm 4 mps 646 mmHg 37%
    19:00 +15°C° 0 mm 4 mps 646 mmHg 44%
    20:00 +13°C° 0 mm 5 mps 646 mmHg 51%
    21:00 +12°C° 0 mm 4 mps 646 mmHg 59%
    22:00 +11°C° 0 mm 4 mps 646 mmHg 66%
    23:00 +10°C° 0 mm 4 mps 646 mmHg 74%

    5 June, Friday

    Time Temperature Precipitation Wind Pressure Humidity
    00:00 +10°C° 0 mm 4 mps 646 mmHg 78%
    01:00 +10°C° 0 mm 3 mps 646 mmHg 82%
    02:00 +9°C° 0 mm 3 mps 646 mmHg 86%
    03:00 +9°C° 0 mm 3 mps 646 mmHg 89%
    04:00 +8°C° 0 mm 3 mps 646 mmHg 92%
    05:00 +7°C° 0 mm 2 mps 646 mmHg 95%
    06:00 +8°C° 0 mm 3 mps 646 mmHg 91%
    07:00 +9°C° 0 mm 3 mps 647 mmHg 88%
    08:00 +10°C° 0 mm 3 mps 647 mmHg 84%
    09:00 +13°C° 0 mm 3 mps 648 mmHg 72%
    10:00 +17°C° 0 mm 3 mps 648 mmHg 59%
    11:00 +20°C° 0 mm 2 mps 649 mmHg 46%
    12:00 +21°C° 0 mm 3 mps 648 mmHg 42%
    13:00 +22°C° 0 mm 3 mps 648 mmHg 38%
    14:00 +24°C° 0 mm 3 mps 648 mmHg 33%
    15:00 +21°C° 0 mm 3 mps 647 mmHg 37%
    16:00 +20°C° 0 mm 3 mps 647 mmHg 41%
    17:00 +18°C° 0 mm 2 mps 647 mmHg 45%
    18:00 +17°C° 0 mm 3 mps 647 mmHg 49%
    19:00 +15°C° 0 mm 4 mps 647 mmHg 54%
    20:00 +13°C° 0 mm 4 mps 648 mmHg 58%
    21:00 +12°C° 0 mm 4 mps 648 mmHg 67%
    22:00 +11°C° 0 mm 4 mps 647 mmHg 75%
    23:00 +10°C° 0 mm 4 mps 647 mmHg 84%

    6 June, Saturday

    Time Temperature Precipitation Wind Pressure Humidity
    00:00 +9°C° 0 mm 3 mps 647 mmHg 86%
    01:00 +8°C° 0 mm 3 mps 647 mmHg 89%
    02:00 +8°C° 0 mm 3 mps 646 mmHg 91%
    03:00 +7°C° 0 mm 3 mps 646 mmHg 92%
    04:00 +7°C° 0 mm 3 mps 646 mmHg 94%
    05:00 +7°C° 0 mm 3 mps 646 mmHg 95%
    06:00 +8°C° 0 mm 3 mps 647 mmHg 90%
    07:00 +8°C° 0 mm 4 mps 647 mmHg 84%
    08:00 +10°C° 0 mm 4 mps 648 mmHg 79%
    09:00 +12°C° 0 mm 4 mps 648 mmHg 69%
    10:00 +14°C° 0 mm 4 mps 649 mmHg 58%
    11:00 +17°C° 0 mm 4 mps 649 mmHg 48%
    12:00 +17°C° 0 mm 5 mps 649 mmHg 46%
    13:00 +17°C° 0 mm 5 mps 648 mmHg 44%
    14:00 +19°C° 0 mm 5 mps 648 mmHg 42%
    15:00 +17°C° 0 mm 5 mps 648 mmHg 47%
    16:00 +17°C° 0 mm 4 mps 647 mmHg 52%
    17:00 +15°C° 0 mm 4 mps 647 mmHg 56%
    18:00 +13°C° 0 mm 4 mps 647 mmHg 66%
    19:00 +11°C° 0 mm 4 mps 647 mmHg 75%
    20:00 +10°C° 0 mm 4 mps 647 mmHg 84%
    21:00 +9°C° 0 mm 3 mps 647 mmHg 88%
    22:00 +9°C° 0 mm 3 mps 647 mmHg 91%
    23:00 +8°C° 0 mm 3 mps 647 mmHg 94%

    7 June, Sunday

    Time Temperature Precipitation Wind Pressure Humidity
    00:00 +8°C° 0 mm 3 mps 647 mmHg 94%
    01:00 +8°C° 0 mm 3 mps 647 mmHg 94%
    02:00 +8°C° 0 mm 3 mps 646 mmHg 94%
    03:00 +7°C° 0 mm 4 mps 646 mmHg 94%
    04:00 +8°C° 0 mm 4 mps 646 mmHg 94%
    05:00 +8°C° 0 mm 4 mps 647 mmHg 94%
    06:00 +10°C° 0 mm 4 mps 647 mmHg 89%
    07:00 +9°C° 0 mm 5 mps 647 mmHg 83%
    08:00 +10°C° 0 mm 5 mps 648 mmHg 78%
    09:00 +13°C° 0 mm 5 mps 648 mmHg 72%
    10:00 +14°C° 0 mm 5 mps 648 mmHg 65%
    11:00 +16°C° 0 mm 5 mps 649 mmHg 59%
    12:00 +17°C° 0 mm 5 mps 648 mmHg 54%
    13:00 +19°C° 0 mm 5 mps 648 mmHg 49%
    14:00 +19°C° 0 mm 5 mps 648 mmHg 44%
    15:00 +17°C° 0 mm 5 mps 647 mmHg 44%
    16:00 +17°C° 0 mm 4 mps 647 mmHg 44%
    17:00 +15°C° 0 mm 4 mps 647 mmHg 44%
    18:00 +13°C° 0 mm 4 mps 646 mmHg 51%
    19:00 +11°C° 0 mm 4 mps 646 mmHg 58%
    20:00 +8°C° 0 mm 4 mps 646 mmHg 66%
    21:00 +8°C° 0 mm 3 mps 646 mmHg 70%
    22:00 +8°C° 0 mm 3 mps 646 mmHg 74%
    23:00 +7°C° 0 mm 3 mps 646 mmHg 79%
    Show more